TimeEDT,TemperatureF,Dew PointF,Humidity,Sea Level PressureIn,VisibilityMPH,Wind Direction,Wind SpeedMPH,Gust SpeedMPH,PrecipitationIn,Events,Conditions,WindDirDegrees,DateUTC
1:53 AM,50.0,34.0,54,30.23,10.0,NW,12.7,-,N/A,,Clear,320,2013-03-27 05:53:00
2:53 AM,48.0,35.1,61,30.22,10.0,NW,11.5,-,N/A,,Clear,320,2013-03-27 06:53:00
3:53 AM,46.9,37.0,68,30.20,10.0,NW,8.1,-,N/A,,Clear,310,2013-03-27 07:53:00
4:53 AM,46.0,37.0,71,30.20,10.0,NNW,6.9,-,N/A,,Clear,330,2013-03-27 08:53:00
5:53 AM,46.9,36.0,66,30.21,10.0,NNW,8.1,-,N/A,,Clear,330,2013-03-27 09:53:00
6:53 AM,46.0,36.0,68,30.23,10.0,NNW,9.2,-,N/A,,Clear,330,2013-03-27 10:53:00
7:53 AM,46.9,36.0,66,30.25,10.0,NNW,9.2,-,N/A,,Clear,330,2013-03-27 11:53:00
8:53 AM,52.0,34.0,50,30.26,10.0,NNW,11.5,-,N/A,,Clear,330,2013-03-27 12:53:00
9:53 AM,57.0,36.0,45,30.27,10.0,NNW,15.0,-,N/A,,Clear,340,2013-03-27 13:53:00
10:53 AM,61.0,37.9,42,30.28,10.0,NW,15.0,-,N/A,,Clear,320,2013-03-27 14:53:00
11:53 AM,64.0,39.9,41,30.27,10.0,NW,12.7,-,N/A,,Clear,320,2013-03-27 15:53:00
12:53 PM,66.9,41.0,39,30.25,10.0,North,11.5,16.1,N/A,,Clear,360,2013-03-27 16:53:00
1:53 PM,68.0,39.9,36,30.23,10.0,NNW,10.4,18.4,N/A,,Clear,340,2013-03-27 17:53:00
2:53 PM,69.1,39.9,35,30.22,10.0,NNW,9.2,16.1,N/A,,Clear,330,2013-03-27 18:53:00
3:53 PM,70.0,39.0,32,30.20,10.0,NNW,10.4,-,N/A,,Clear,330,2013-03-27 19:53:00
4:53 PM,69.1,37.9,32,30.19,10.0,North,10.4,17.3,N/A,,Clear,350,2013-03-27 20:53:00
5:53 PM,68.0,37.9,33,30.20,10.0,North,8.1,-,N/A,,Clear,360,2013-03-27 21:53:00
6:53 PM,66.0,37.0,34,30.21,10.0,NW,11.5,-,N/A,,Clear,320,2013-03-27 22:53:00
7:53 PM,63.0,35.1,35,30.22,10.0,NNW,11.5,-,N/A,,Clear,330,2013-03-27 23:53:00
8:53 PM,59.0,34.0,39,30.24,10.0,NNE,5.8,-,N/A,,Clear,20,2013-03-28 00:53:00
9:53 PM,59.0,35.1,41,30.25,10.0,NNE,4.6,-,N/A,,Clear,20,2013-03-28 01:53:00
10:53 PM,57.9,41.0,53,30.25,10.0,Calm,Calm,-,N/A,,Clear,0,2013-03-28 02:53:00
11:53 PM,55.9,44.1,64,30.25,10.0,North,4.6,-,N/A,,Clear,350,2013-03-28 03:53:00